IGO616C VOHS-VOMD

Flight info

Callsign IGO616C
Flight time 1h 11m
Altitude 38000
Route VABDI5 VABDI W153 TELUV Q21 BIA W118 AKTIM/N0448F370 J14 MATPA
Aircraft A320/M-SDE3FGHIRWY/LB1

Departure

Time 2026-05-07 12:34
Airport Rajiv Gandhi International Airport (VOHS)

Arrival

Time 2026-05-07 13:45
Airport Madurai Airport (VOMD)
Time Latitude Longitude Altitude Speed Heading
2026-05-07 12:14 17.23427 78.43075 1982 ft 0 kts 359°
2026-05-07 12:24 17.23413 78.43076 1985 ft 2 kts 359°
2026-05-07 12:24 17.23397 78.43076 1982 ft 2 kts 358°
2026-05-07 12:24 17.23380 78.43076 1981 ft 2 kts 358°
2026-05-07 12:24 17.23364 78.43077 1983 ft 2 kts
2026-05-07 12:25 17.23347 78.43074 1981 ft 2 kts 32°
2026-05-07 12:25 17.23335 78.43062 1983 ft 2 kts 62°
2026-05-07 12:25 17.23330 78.43048 1981 ft 1 kts 83°
2026-05-07 12:25 17.23329 78.43044 1981 ft 0 kts 86°
2026-05-07 12:26 17.23329 78.43045 1981 ft 0 kts 86°
2026-05-07 12:27 17.23329 78.43057 1984 ft 4 kts 88°
2026-05-07 12:27 17.23330 78.43098 1982 ft 8 kts 89°
2026-05-07 12:27 17.23303 78.43155 1981 ft 11 kts 150°
2026-05-07 12:27 17.23215 78.43163 1980 ft 14 kts 179°
2026-05-07 12:28 17.23116 78.43169 1982 ft 14 kts 155°
2026-05-07 12:28 17.23086 78.43259 1979 ft 14 kts 87°
2026-05-07 12:28 17.23088 78.43366 1979 ft 15 kts 89°
2026-05-07 12:28 17.23088 78.43483 1979 ft 17 kts 90°
2026-05-07 12:29 17.23091 78.43618 1980 ft 20 kts 89°
2026-05-07 12:29 17.23092 78.43772 1980 ft 22 kts 88°
2026-05-07 12:29 17.23095 78.43936 1980 ft 23 kts 90°
2026-05-07 12:29 17.23097 78.44094 1981 ft 21 kts 89°
2026-05-07 12:30 17.23100 78.44247 1983 ft 21 kts 89°
2026-05-07 12:30 17.23103 78.44407 1981 ft 22 kts 88°
2026-05-07 12:30 17.23104 78.44574 1981 ft 24 kts 89°
2026-05-07 12:30 17.23106 78.44730 1980 ft 17 kts 89°
2026-05-07 12:31 17.23108 78.44863 1979 ft 19 kts 90°
2026-05-07 12:31 17.23109 78.45009 1982 ft 21 kts 89°
2026-05-07 12:31 17.23111 78.45163 1980 ft 21 kts 89°
2026-05-07 12:31 17.23096 78.45297 1981 ft 17 kts 123°
2026-05-07 12:32 17.23035 78.45321 1981 ft 5 kts 177°
2026-05-07 12:32 17.22996 78.45313 1980 ft 7 kts 208°
2026-05-07 12:32 17.22954 78.45285 1981 ft 8 kts 217°
2026-05-07 12:32 17.22917 78.45243 1981 ft 8 kts 238°
2026-05-07 12:33 17.22904 78.44857 1980 ft 80 kts 269°
2026-05-07 12:33 17.22894 78.44051 1979 ft 138 kts 269°
2026-05-07 12:33 17.22877 78.42891 1982 ft 180 kts 269°
2026-05-07 12:34 17.22880 78.41552 2512 ft 183 kts 270°
2026-05-07 12:34 17.22844 78.40225 3184 ft 183 kts 259°
2026-05-07 12:34 17.22164 78.39075 3539 ft 199 kts 213°
2026-05-07 12:34 17.20797 78.38694 3699 ft 216 kts 179°
2026-05-07 12:35 17.19208 78.38744 3863 ft 241 kts 174°
2026-05-07 12:35 17.17459 78.38875 4179 ft 265 kts 174°
2026-05-07 12:35 17.15569 78.39023 4783 ft 276 kts 174°
2026-05-07 12:35 17.13645 78.39225 5488 ft 280 kts 169°
2026-05-07 12:36 17.11716 78.39569 5900 ft 282 kts 168°
2026-05-07 12:36 17.09796 78.39966 5996 ft 281 kts 167°
2026-05-07 12:36 17.07881 78.40379 6002 ft 280 kts 167°
2026-05-07 12:36 17.05997 78.40780 6010 ft 280 kts 167°
2026-05-07 12:37 17.04084 78.41180 6005 ft 280 kts 167°
2026-05-07 12:37 17.02164 78.41573 6132 ft 285 kts 168°
2026-05-07 12:37 17.00210 78.41969 6759 ft 288 kts 167°
2026-05-07 12:37 16.98244 78.42366 6953 ft 287 kts 167°
2026-05-07 12:38 16.96271 78.42764 7551 ft 290 kts 167°
2026-05-07 12:38 16.94279 78.43163 8370 ft 293 kts 168°
2026-05-07 12:38 16.92258 78.43566 9139 ft 298 kts 168°
2026-05-07 12:38 16.90266 78.43962 9868 ft 302 kts 168°
2026-05-07 12:39 16.88082 78.44374 10216 ft 323 kts 171°
2026-05-07 12:39 16.85781 78.44690 10467 ft 342 kts 173°
2026-05-07 12:39 16.83388 78.44942 11034 ft 349 kts 174°
2026-05-07 12:39 16.80958 78.45168 11691 ft 352 kts 175°
2026-05-07 12:40 16.78510 78.45396 12367 ft 355 kts 175°
2026-05-07 12:40 16.76038 78.45636 13047 ft 358 kts 175°
2026-05-07 12:40 16.73549 78.45890 13719 ft 360 kts 175°
2026-05-07 12:40 16.71044 78.46156 14287 ft 363 kts 175°
2026-05-07 12:41 16.68520 78.46426 14853 ft 366 kts 175°
2026-05-07 12:41 16.65978 78.46700 15404 ft 369 kts 175°
2026-05-07 12:41 16.63410 78.46978 15954 ft 373 kts 175°
2026-05-07 12:41 16.60816 78.47258 16497 ft 376 kts 175°
2026-05-07 12:42 16.58204 78.47540 17037 ft 379 kts 175°
2026-05-07 12:42 16.55566 78.47825 17564 ft 382 kts 175°
2026-05-07 12:42 16.52914 78.48111 18111 ft 385 kts 175°
2026-05-07 12:42 16.50234 78.48400 18554 ft 388 kts 175°
2026-05-07 12:43 16.47540 78.48691 19004 ft 391 kts 175°
2026-05-07 12:43 16.44823 78.48985 19450 ft 394 kts 175°
2026-05-07 12:43 16.42079 78.49280 19894 ft 397 kts 175°
2026-05-07 12:43 16.39323 78.49573 20329 ft 400 kts 175°
2026-05-07 12:44 16.36542 78.49869 20756 ft 403 kts 175°
2026-05-07 12:44 16.33738 78.50165 21176 ft 406 kts 175°
2026-05-07 12:44 16.30919 78.50463 21595 ft 409 kts 175°
2026-05-07 12:44 16.28073 78.50765 22011 ft 412 kts 175°
2026-05-07 12:45 16.25212 78.51073 22404 ft 415 kts 175°
2026-05-07 12:45 16.22335 78.51385 22805 ft 418 kts 175°
2026-05-07 12:45 16.19437 78.51702 23183 ft 420 kts 175°
2026-05-07 12:45 16.16517 78.52018 23536 ft 423 kts 175°
2026-05-07 12:46 16.13580 78.52331 23872 ft 425 kts 176°
2026-05-07 12:46 16.10639 78.52644 24206 ft 426 kts 175°
2026-05-07 12:46 16.07680 78.52958 24560 ft 428 kts 175°
2026-05-07 12:46 16.04714 78.53274 24899 ft 430 kts 175°
2026-05-07 12:47 16.01733 78.53592 25242 ft 431 kts 175°
2026-05-07 12:47 15.98744 78.53913 25578 ft 433 kts 175°
2026-05-07 12:47 15.95743 78.54236 25921 ft 434 kts 175°
2026-05-07 12:47 15.92733 78.54559 26255 ft 436 kts 175°
2026-05-07 12:48 15.89712 78.54883 26584 ft 438 kts 175°
2026-05-07 12:48 15.86674 78.55211 26908 ft 439 kts 175°
2026-05-07 12:48 15.83630 78.55539 27231 ft 441 kts 175°
2026-05-07 12:48 15.80565 78.55866 27549 ft 443 kts 175°
2026-05-07 12:49 15.77495 78.56192 27868 ft 445 kts 175°
2026-05-07 12:49 15.74415 78.56519 28178 ft 447 kts 175°
2026-05-07 12:49 15.71315 78.56849 28498 ft 449 kts 175°
2026-05-07 12:49 15.68201 78.57180 28822 ft 451 kts 175°
2026-05-07 12:50 15.65073 78.57511 29152 ft 453 kts 175°
2026-05-07 12:50 15.61924 78.57843 29489 ft 455 kts 175°
2026-05-07 12:50 15.58768 78.58178 29813 ft 457 kts 175°
2026-05-07 12:50 15.55602 78.58517 30101 ft 459 kts 175°
2026-05-07 12:51 15.52412 78.58860 30381 ft 461 kts 175°
2026-05-07 12:51 15.49213 78.59204 30668 ft 462 kts 175°
2026-05-07 12:51 15.46007 78.59544 30966 ft 464 kts 175°
2026-05-07 12:51 15.42805 78.59882 31262 ft 464 kts 175°
2026-05-07 12:52 15.39601 78.60219 31698 ft 462 kts 175°
2026-05-07 12:52 15.36400 78.60558 32146 ft 460 kts 175°
2026-05-07 12:52 15.34296 78.60782 32447 ft 458 kts 175°
2026-05-07 12:52 15.30069 78.61231 33046 ft 456 kts 175°
2026-05-07 12:53 15.26918 78.61563 33500 ft 454 kts 175°
2026-05-07 12:53 15.23789 78.61894 33931 ft 452 kts 175°
2026-05-07 12:53 15.20665 78.62225 34308 ft 450 kts 175°
2026-05-07 12:53 15.17555 78.62555 34658 ft 449 kts 175°
2026-05-07 12:54 15.14450 78.62878 34992 ft 448 kts 176°
2026-05-07 12:54 15.11341 78.62891 35324 ft 446 kts 186°
2026-05-07 12:54 15.08290 78.62358 35645 ft 445 kts 195°
2026-05-07 12:54 15.05384 78.61295 35958 ft 443 kts 205°
2026-05-07 12:55 15.02587 78.59946 36269 ft 443 kts 205°
2026-05-07 12:55 14.99795 78.58600 36575 ft 442 kts 205°
2026-05-07 12:55 14.97041 78.57276 36868 ft 442 kts 205°
2026-05-07 12:55 14.94215 78.55920 37154 ft 442 kts 205°
2026-05-07 12:56 14.91472 78.54602 37453 ft 441 kts 205°
2026-05-07 12:56 14.88686 78.53262 37709 ft 442 kts 205°
2026-05-07 12:56 14.83101 78.50582 37796 ft 443 kts 205°
2026-05-07 12:57 14.77516 78.47902 37793 ft 443 kts 205°
2026-05-07 12:57 14.71924 78.45222 37791 ft 443 kts 205°
2026-05-07 12:58 14.66257 78.42501 37803 ft 456 kts 205°
2026-05-07 12:58 14.61383 78.40161 37800 ft 465 kts 205°
2026-05-07 12:59 14.55527 78.37344 37803 ft 469 kts 205°
2026-05-07 12:59 14.49605 78.34499 37810 ft 469 kts 205°
2026-05-07 13:00 14.43688 78.31656 37817 ft 469 kts 205°
2026-05-07 13:00 14.37730 78.28800 37825 ft 470 kts 205°
2026-05-07 13:01 14.31839 78.25981 37827 ft 470 kts 204°
2026-05-07 13:01 14.25903 78.23148 37836 ft 470 kts 204°
2026-05-07 13:02 14.19938 78.20391 37851 ft 470 kts 203°
2026-05-07 13:02 14.13961 78.17643 37859 ft 470 kts 205°
2026-05-07 13:03 14.08099 78.14642 37858 ft 471 kts 207°
2026-05-07 13:03 14.02296 78.11526 37861 ft 470 kts 207°
2026-05-07 13:04 13.96475 78.08454 37869 ft 470 kts 206°
2026-05-07 13:04 13.90623 78.05438 37875 ft 470 kts 206°
2026-05-07 13:05 13.84765 78.02429 37882 ft 470 kts 206°
2026-05-07 13:05 13.78915 77.99415 37891 ft 471 kts 206°
2026-05-07 13:06 13.73065 77.96381 37897 ft 471 kts 206°
2026-05-07 13:06 13.67213 77.93345 37903 ft 471 kts 206°
2026-05-07 13:07 13.61358 77.90318 37903 ft 471 kts 206°
2026-05-07 13:07 13.55883 77.87494 37909 ft 471 kts 206°
2026-05-07 13:08 13.49984 77.84447 37916 ft 471 kts 206°
2026-05-07 13:08 13.44125 77.81421 37924 ft 472 kts 206°
2026-05-07 13:09 13.38364 77.78447 37930 ft 472 kts 206°
2026-05-07 13:09 13.32487 77.75422 37929 ft 472 kts 206°
2026-05-07 13:10 13.26609 77.72400 37930 ft 473 kts 206°
2026-05-07 13:10 13.20594 77.69729 37933 ft 472 kts 194°
2026-05-07 13:11 13.14140 77.68800 37930 ft 472 kts 185°
2026-05-07 13:11 13.07605 77.68164 37933 ft 472 kts 185°
2026-05-07 13:12 13.01061 77.67529 37934 ft 472 kts 185°
2026-05-07 13:12 12.94518 77.66887 37934 ft 473 kts 185°
2026-05-07 13:13 12.87976 77.66242 37928 ft 472 kts 185°
2026-05-07 13:13 12.81385 77.65599 37920 ft 472 kts 186°
2026-05-07 13:14 12.74897 77.64963 37922 ft 472 kts 186°
2026-05-07 13:14 12.68362 77.64328 37920 ft 472 kts 186°
2026-05-07 13:15 12.61827 77.63688 37914 ft 472 kts 186°
2026-05-07 13:15 12.55296 77.63053 37913 ft 472 kts 186°
2026-05-07 13:16 12.48760 77.62418 37905 ft 472 kts 186°
2026-05-07 13:16 12.42225 77.61785 37902 ft 471 kts 186°
2026-05-07 13:17 12.35699 77.61155 37890 ft 471 kts 186°
2026-05-07 13:17 12.29165 77.60516 37887 ft 471 kts 186°
2026-05-07 13:18 12.22641 77.59881 37883 ft 471 kts 186°
2026-05-07 13:18 12.16109 77.59247 37883 ft 472 kts 186°
2026-05-07 13:19 12.09564 77.58613 37879 ft 472 kts 186°
2026-05-07 13:19 12.03022 77.58746 37881 ft 473 kts 172°
2026-05-07 13:20 11.96517 77.59772 37873 ft 473 kts 172°
2026-05-07 13:20 11.90012 77.60792 37868 ft 473 kts 172°
2026-05-07 13:21 11.83644 77.61784 37765 ft 453 kts 172°
2026-05-07 13:21 11.80545 77.62265 37491 ft 449 kts 172°
2026-05-07 13:21 11.77463 77.62742 37246 ft 448 kts 172°
2026-05-07 13:22 11.74386 77.63221 36987 ft 447 kts 172°
2026-05-07 13:22 11.71311 77.63702 36731 ft 448 kts 172°
2026-05-07 13:22 11.68228 77.64183 36478 ft 448 kts 172°
2026-05-07 13:22 11.65145 77.64664 36229 ft 449 kts 172°
2026-05-07 13:23 11.62054 77.65145 35987 ft 449 kts 172°
2026-05-07 13:23 11.58960 77.65624 35421 ft 451 kts 172°
2026-05-07 13:23 11.55847 77.66106 34715 ft 455 kts 172°
2026-05-07 13:23 11.52729 77.66589 34256 ft 452 kts 171°
2026-05-07 13:24 11.49631 77.67073 33741 ft 450 kts 171°
2026-05-07 13:24 11.46543 77.67556 33181 ft 448 kts 171°
2026-05-07 13:24 11.43470 77.68036 32687 ft 444 kts 171°
2026-05-07 13:24 11.40424 77.68509 32164 ft 442 kts 171°
2026-05-07 13:25 11.37390 77.68981 31640 ft 439 kts 171°
2026-05-07 13:25 11.34376 77.69451 31129 ft 437 kts 171°
2026-05-07 13:25 11.31383 77.69917 30625 ft 434 kts 171°
2026-05-07 13:25 11.28404 77.70381 30122 ft 432 kts 171°
2026-05-07 13:26 11.25437 77.70843 29586 ft 430 kts 171°
2026-05-07 13:26 11.22499 77.71297 29086 ft 425 kts 171°
2026-05-07 13:26 11.19591 77.71749 28614 ft 421 kts 171°
2026-05-07 13:26 11.16714 77.72198 28150 ft 416 kts 171°
2026-05-07 13:27 11.13858 77.72643 27690 ft 413 kts 171°
2026-05-07 13:27 11.11038 77.73080 27257 ft 409 kts 171°
2026-05-07 13:27 11.08234 77.73514 26825 ft 405 kts 171°
2026-05-07 13:27 11.05455 77.73943 26405 ft 402 kts 171°
2026-05-07 13:28 11.02702 77.74369 25985 ft 400 kts 170°
2026-05-07 13:28 10.99956 77.74796 25564 ft 398 kts 170°
2026-05-07 13:28 10.97261 77.75217 25138 ft 396 kts 170°
2026-05-07 13:28 10.94507 77.75648 24703 ft 394 kts 170°
2026-05-07 13:29 10.91835 77.76062 24260 ft 393 kts 170°
2026-05-07 13:29 10.89128 77.76445 23807 ft 392 kts 171°
2026-05-07 13:29 10.86417 77.76791 23346 ft 392 kts 172°
2026-05-07 13:29 10.83713 77.77118 22826 ft 391 kts 172°
2026-05-07 13:30 10.81018 77.77437 22354 ft 388 kts 172°
2026-05-07 13:30 10.78345 77.77755 21881 ft 385 kts 172°
2026-05-07 13:30 10.75692 77.78079 21402 ft 383 kts 172°
2026-05-07 13:30 10.73057 77.78407 20928 ft 381 kts 172°
2026-05-07 13:31 10.70436 77.78738 20453 ft 378 kts 172°
2026-05-07 13:31 10.67831 77.79068 19989 ft 376 kts 172°
2026-05-07 13:31 10.65240 77.79397 19513 ft 374 kts 172°
2026-05-07 13:31 10.62666 77.79722 19046 ft 372 kts 172°
2026-05-07 13:32 10.60096 77.80047 18571 ft 371 kts 173°
2026-05-07 13:32 10.57536 77.80370 18102 ft 370 kts 173°
2026-05-07 13:32 10.54985 77.80694 17585 ft 368 kts 173°
2026-05-07 13:32 10.52454 77.81015 17115 ft 365 kts 173°
2026-05-07 13:33 10.49945 77.81332 16657 ft 362 kts 173°
2026-05-07 13:33 10.47458 77.81647 16192 ft 359 kts 172°
2026-05-07 13:33 10.44980 77.81961 15742 ft 357 kts 172°
2026-05-07 13:33 10.42525 77.82272 15290 ft 355 kts 172°
2026-05-07 13:34 10.40081 77.82578 14838 ft 353 kts 172°
2026-05-07 13:34 10.35280 77.83174 13956 ft 351 kts 172°
2026-05-07 13:34 10.32861 77.83477 13492 ft 350 kts 172°
2026-05-07 13:35 10.30452 77.83781 13032 ft 348 kts 172°
2026-05-07 13:35 10.28052 77.84086 12587 ft 346 kts 172°
2026-05-07 13:35 10.25642 77.84393 12140 ft 344 kts 172°
2026-05-07 13:35 10.23308 77.84691 11707 ft 342 kts 172°
2026-05-07 13:36 10.20920 77.84992 11271 ft 340 kts 172°
2026-05-07 13:36 10.18571 77.85286 10841 ft 339 kts 172°
2026-05-07 13:36 10.16236 77.85576 10416 ft 338 kts 172°
2026-05-07 13:36 10.13903 77.85865 9989 ft 337 kts 172°
2026-05-07 13:37 10.11597 77.86152 9796 ft 328 kts 172°
2026-05-07 13:37 10.09370 77.86431 9675 ft 316 kts 172°
2026-05-07 13:37 10.07225 77.86703 9187 ft 307 kts 172°
2026-05-07 13:37 10.05147 77.86969 8541 ft 304 kts 172°
2026-05-07 13:38 10.03030 77.87237 7933 ft 301 kts 172°
2026-05-07 13:38 10.00965 77.87496 7327 ft 298 kts 173°
2026-05-07 13:38 9.99138 77.87728 6790 ft 296 kts 172°
2026-05-07 13:38 9.97113 77.87984 6536 ft 281 kts 173°
2026-05-07 13:39 9.95252 77.88215 6398 ft 263 kts 173°
2026-05-07 13:39 9.93438 77.88436 6321 ft 254 kts 173°
2026-05-07 13:39 9.91792 77.88590 6093 ft 251 kts 175°
2026-05-07 13:39 9.90069 77.88716 5764 ft 252 kts 176°
2026-05-07 13:40 9.88296 77.88834 5398 ft 253 kts 175°
2026-05-07 13:40 9.87131 77.88912 5178 ft 253 kts 175°
2026-05-07 13:40 9.85406 77.89029 4826 ft 245 kts 175°
2026-05-07 13:40 9.83741 77.89203 4475 ft 235 kts 163°
2026-05-07 13:41 9.82211 77.90539 4044 ft 221 kts 109°
2026-05-07 13:41 9.82053 77.91556 3835 ft 215 kts 91°
2026-05-07 13:41 9.82157 77.93513 3455 ft 205 kts 85°
2026-05-07 13:41 9.82249 77.94463 3274 ft 197 kts 85°
2026-05-07 13:42 9.82384 77.95825 2986 ft 191 kts 86°
2026-05-07 13:42 9.82510 77.97162 2702 ft 188 kts 86°
2026-05-07 13:42 9.82623 77.98428 2455 ft 175 kts 87°
2026-05-07 13:42 9.82720 77.99571 2219 ft 153 kts 89°
2026-05-07 13:43 9.82806 78.00610 2008 ft 143 kts 89°
2026-05-07 13:43 9.82884 78.01603 1819 ft 142 kts 89°
2026-05-07 13:43 9.82959 78.02588 1635 ft 138 kts 89°
2026-05-07 13:43 9.83033 78.03552 1441 ft 136 kts 89°
2026-05-07 13:44 9.83104 78.04508 1267 ft 135 kts 89°
2026-05-07 13:44 9.83143 78.05464 1101 ft 139 kts 86°
2026-05-07 13:44 9.83249 78.06436 880 ft 135 kts 90°
2026-05-07 13:44 9.83309 78.07384 724 ft 137 kts 88°
2026-05-07 13:45 9.83392 78.08347 465 ft 135 kts 89°
2026-05-07 13:45 9.83447 78.09168 438 ft 81 kts 85°
2026-05-07 13:45 9.83471 78.09494 432 ft 33 kts 85°
2026-05-07 13:45 9.83488 78.09724 446 ft 32 kts 86°
2026-05-07 13:46 9.83503 78.09952 440 ft 33 kts 85°
2026-05-07 13:46 9.83552 78.10070 432 ft 14 kts 38°
2026-05-07 13:46 9.83539 78.10137 446 ft 12 kts 192°
2026-05-07 13:46 9.83513 78.10060 435 ft 13 kts 266°
2026-05-07 13:47 9.83505 78.09957 440 ft 16 kts 265°
2026-05-07 13:47 9.83496 78.09835 446 ft 19 kts 265°
2026-05-07 13:47 9.83486 78.09692 437 ft 22 kts 266°
2026-05-07 13:47 9.83474 78.09526 441 ft 25 kts 265°
2026-05-07 13:48 9.83460 78.09345 443 ft 26 kts 265°
2026-05-07 13:48 9.83448 78.09169 438 ft 24 kts 266°
2026-05-07 13:48 9.83451 78.09044 435 ft 17 kts 294°
2026-05-07 13:48 9.83512 78.08956 437 ft 11 kts 306°
2026-05-07 13:49 9.83572 78.08921 435 ft 11 kts 20°
2026-05-07 13:49 9.83651 78.08925 438 ft 11 kts 355°
2026-05-07 13:49 9.83722 78.08920 443 ft 10 kts 357°
2026-05-07 13:49 9.83753 78.08918 431 ft 4 kts 355°
2026-05-07 13:50 9.83759 78.08918 437 ft 0 kts 355°